Change the Weather History Date:

Tuesday, March 27, 2012

  Actual Average Record
Temperature  
Mean Temperature 62 °F -  
Max Temperature 80 °F 50 °F 80 °F (2012)
Min Temperature 44 °F 28 °F -3 °F (1964)
Degree Days  
Heating Degree Days 3    
Growing Degree Days 12 (Base 50)    
Moisture  
Dew Point 38 °F    
Average Humidity 51    
Maximum Humidity 71    
Minimum Humidity 10    
Precipitation  
Precipitation 0.00 in - - ()
Sea Level Pressure  
Sea Level Pressure 29.85 in    
Wind  
Wind Speed 16 mph (South)    
Max Wind Speed 22 mph    
Max Gust Speed 34 mph    
Visibility 10 miles    
Events      
Averages and records for this station are not official NWS values.
T = Trace of Precipitation, MM = Missing Value Source: NWS Daily Summary

Daily Weather History Graph

Daily Weather History Graph

Search for Another Location

Airport or City:

Trip Planner

Search our weather history database for the weather conditions in past years. The results will help you decide how hot, cold, wet, or windy it might be!

Date:

Astronomy

Mar. 27, 2012 Rise Set
Actual Time 6:56 AM CDT 7:28 PM CDT
Civil Twilight 6:28 AM CDT 7:56 PM CDT
Nautical Twilight 5:54 AM CDT 8:30 PM CDT
Astronomical Twilight 5:19 AM CDT 9:05 PM CDT
Moon 9:19 AM CDT (3/27) No Moon Set
Length of Visible Light 13h 28m
Length of Day
12h 31m
Waxing Crescent, 22% of the Moon is Illuminated
Mar 27
Waxing Crescent
Mar 30
First Quarter
Apr 6
Full
Apr 13
Last Quarter
Apr 21
New

Hourly Weather History & Observations

Time (CDT) Temp. Windchill Dew Point Humidity Pressure Visibility Wind Dir Wind Speed Gust Speed Precip Events Conditions
12:15 AM 44.6 °F 37.8 °F 33.8 °F 66% 30.05 in 10.0 mi SE 15.0 mph 23.0 mph N/A   Clear
12:35 AM 44.6 °F 38.4 °F 33.8 °F 66% 30.04 in 10.0 mi SE 12.7 mph 26.5 mph N/A   Clear
12:55 AM 44.6 °F 38.4 °F 35.6 °F 71% 30.03 in 10.0 mi SE 12.7 mph 21.9 mph N/A   Clear
1:15 AM 44.6 °F 37.4 °F 35.6 °F 71% 30.02 in 10.0 mi SE 16.1 mph 21.9 mph N/A   Clear
1:35 AM 44.6 °F 37.4 °F 35.6 °F 71% 30.01 in 10.0 mi SE 16.1 mph 23.0 mph N/A   Clear
1:55 AM 44.6 °F 37.4 °F 35.6 °F 71% 30.01 in 10.0 mi SE 16.1 mph 24.2 mph N/A   Clear
2:15 AM 44.6 °F 38.1 °F 35.6 °F 71% 30.01 in 10.0 mi SE 13.8 mph 24.2 mph N/A   Clear
2:35 AM 44.6 °F 39.7 °F 35.6 °F 71% 30.02 in 10.0 mi SSE 9.2 mph 16.1 mph N/A   Clear
2:55 AM 44.6 °F 38.1 °F 35.6 °F 71% 30.00 in 10.0 mi SE 13.8 mph 18.4 mph N/A   Clear
3:15 AM 44.6 °F 39.7 °F 35.6 °F 71% 30.00 in 10.0 mi SE 9.2 mph - N/A   Clear
3:35 AM 44.6 °F 38.8 °F 35.6 °F 71% 29.98 in 10.0 mi SE 11.5 mph 19.6 mph N/A   Clear
3:55 AM 44.6 °F 38.4 °F 35.6 °F 71% 29.98 in 10.0 mi SE 12.7 mph 17.3 mph N/A   Clear
4:15 AM 44.6 °F 38.4 °F 35.6 °F 71% 29.95 in 10.0 mi SE 12.7 mph 23.0 mph N/A   Clear
4:35 AM 46.4 °F 39.8 °F 35.6 °F 66% 29.95 in 10.0 mi SSE 16.1 mph 26.5 mph N/A   Clear
4:55 AM 46.4 °F 40.4 °F 35.6 °F 66% 29.95 in 10.0 mi SSE 13.8 mph 21.9 mph N/A   Clear
5:15 AM 46.4 °F 40.7 °F 35.6 °F 66% 29.93 in 10.0 mi SE 12.7 mph 24.2 mph N/A   Clear
5:35 AM 46.4 °F 40.4 °F 35.6 °F 66% 29.93 in 10.0 mi SE 13.8 mph 21.9 mph N/A   Clear
5:55 AM 48.2 °F - 35.6 °F 62% 29.95 in 10.0 mi SE 13.8 mph 24.2 mph N/A   Clear
6:15 AM 48.2 °F - 37.4 °F 66% 29.94 in 10.0 mi SSE 16.1 mph 23.0 mph N/A   Clear
6:35 AM 48.2 °F - 37.4 °F 66% 29.91 in 10.0 mi SSE 18.4 mph 25.3 mph N/A   Clear
6:55 AM 48.2 °F - 37.4 °F 66% 29.91 in 10.0 mi SSE 16.1 mph 24.2 mph N/A   Mostly Cloudy
7:15 AM 48.2 °F - 37.4 °F 66% 29.89 in 10.0 mi SSE 18.4 mph 26.5 mph N/A   Mostly Cloudy
7:35 AM 48.2 °F - 37.4 °F 66% 29.88 in 10.0 mi SSE 19.6 mph 26.5 mph N/A   Scattered Clouds
7:55 AM 50.0 °F - 37.4 °F 62% 29.88 in 10.0 mi SSE 20.7 mph 29.9 mph N/A   Mostly Cloudy
8:15 AM 50.0 °F - 39.2 °F 66% 29.87 in 10.0 mi South 16.1 mph 27.6 mph N/A   Mostly Cloudy
8:35 AM 51.8 °F - 39.2 °F 62% 29.85 in 10.0 mi SSE 20.7 mph 27.6 mph N/A   Overcast
8:55 AM 53.6 °F - 41.0 °F 62% 29.86 in 10.0 mi South 21.9 mph 27.6 mph N/A   Mostly Cloudy
9:15 AM 53.6 °F - 42.8 °F 67% 29.85 in 10.0 mi SSE 18.4 mph 26.5 mph N/A   Mostly Cloudy
9:35 AM 55.4 °F - 42.8 °F 63% 29.84 in 10.0 mi SSE 18.4 mph 28.8 mph N/A   Overcast
9:55 AM 55.4 °F - 44.6 °F 67% 29.84 in 10.0 mi South 21.9 mph 29.9 mph N/A   Overcast
10:15 AM 57.2 °F - 46.4 °F 67% 29.84 in 10.0 mi South 16.1 mph 28.8 mph N/A   Overcast
10:35 AM 59.0 °F - 46.4 °F 63% 29.82 in 10.0 mi South 18.4 mph 29.9 mph N/A   Mostly Cloudy
10:55 AM 62.6 °F - 48.2 °F 59% 29.81 in 10.0 mi South 19.6 mph 27.6 mph N/A   Scattered Clouds
11:15 AM 64.4 °F - 50.0 °F 59% 29.80 in 10.0 mi South 15.0 mph 26.5 mph N/A   Clear
11:35 AM 66.2 °F - 51.8 °F 60% 29.79 in 10.0 mi South 16.1 mph 31.1 mph N/A   Clear
11:55 AM 68.0 °F - 53.6 °F 60% 29.78 in 10.0 mi South 18.4 mph 34.5 mph N/A   Clear
12:15 PM 71.6 °F - 55.4 °F 57% 29.77 in 10.0 mi South 18.4 mph 25.3 mph N/A   Clear
12:35 PM 73.4 °F - 57.2 °F 57% 29.75 in 10.0 mi SSW 16.1 mph 29.9 mph N/A   Clear
12:55 PM 75.2 °F - 57.2 °F 53% 29.75 in 10.0 mi SSW 21.9 mph 32.2 mph N/A   Scattered Clouds
1:15 PM 77.0 °F - 55.4 °F 47% 29.74 in 10.0 mi SW 17.3 mph 28.8 mph N/A   Mostly Cloudy
1:35 PM 78.8 °F - 51.8 °F 39% 29.73 in 10.0 mi WSW 20.7 mph 29.9 mph N/A   Mostly Cloudy
1:55 PM 78.8 °F - 48.2 °F 34% 29.72 in 10.0 mi SW 20.7 mph 31.1 mph N/A   Scattered Clouds
2:15 PM 80.6 °F - 46.4 °F 30% 29.72 in 10.0 mi SW 12.7 mph 27.6 mph N/A   Scattered Clouds
2:35 PM 80.6 °F - 48.2 °F 32% 29.71 in 10.0 mi WSW 15.0 mph 26.5 mph N/A   Mostly Cloudy
2:55 PM 80.6 °F - 39.2 °F 23% 29.71 in 10.0 mi SW 18.4 mph 29.9 mph N/A   Scattered Clouds
3:15 PM 80.6 °F - 32.0 °F 17% 29.71 in 10.0 mi WSW 18.4 mph 33.4 mph N/A   Clear
3:35 PM 80.6 °F - 26.6 °F 14% 29.71 in 10.0 mi WSW 20.7 mph 32.2 mph N/A   Clear
3:55 PM 80.6 °F - 21.2 °F 11% 29.71 in 10.0 mi West 20.7 mph 32.2 mph N/A   Clear
4:15 PM 80.6 °F - 17.6 °F 10% 29.71 in 10.0 mi WSW 20.7 mph 33.4 mph N/A   Clear
4:35 PM 80.6 °F - 19.4 °F 10% 29.71 in 10.0 mi West 19.6 mph 31.1 mph N/A   Clear
4:55 PM 80.6 °F - 23.0 °F 12% 29.71 in 10.0 mi West 17.3 mph 28.8 mph N/A   Clear
5:15 PM 78.8 °F - 26.6 °F 15% 29.72 in 10.0 mi WSW 19.6 mph 27.6 mph N/A   Clear
5:35 PM 78.8 °F - 26.6 °F 15% 29.72 in 10.0 mi West 17.3 mph 29.9 mph N/A   Clear
5:55 PM 78.8 °F - 30.2 °F 17% 29.72 in 10.0 mi WSW 13.8 mph 24.2 mph N/A   Clear
6:15 PM 77.0 °F - 33.8 °F 21% 29.73 in 10.0 mi West 16.1 mph 24.2 mph N/A   Clear
6:35 PM 75.2 °F - 33.8 °F 22% 29.73 in 10.0 mi West 16.1 mph 25.3 mph N/A   Clear
6:55 PM 75.2 °F - 33.8 °F 22% 29.74 in 10.0 mi West 16.1 mph 28.8 mph N/A   Clear
7:15 PM 73.4 °F - 35.6 °F 25% 29.74 in 10.0 mi WSW 13.8 mph 18.4 mph N/A   Clear
7:35 PM 73.4 °F - 35.6 °F 25% 29.75 in 10.0 mi WSW 11.5 mph 20.7 mph N/A   Scattered Clouds
7:55 PM 71.6 °F - 37.4 °F 29% 29.76 in 10.0 mi West 9.2 mph 18.4 mph N/A   Scattered Clouds
8:15 PM 71.6 °F - 39.2 °F 31% 29.77 in 10.0 mi West 10.4 mph 18.4 mph N/A   Scattered Clouds
8:35 PM 69.8 °F - 39.2 °F 33% 29.78 in 10.0 mi West 8.1 mph 19.6 mph N/A   Scattered Clouds
8:55 PM 69.8 °F - 39.2 °F 33% 29.80 in 10.0 mi West 9.2 mph - N/A   Mostly Cloudy
9:15 PM 68.0 °F - 41.0 °F 37% 29.80 in 10.0 mi West 6.9 mph - N/A   Mostly Cloudy
9:35 PM 66.2 °F - 41.0 °F 40% 29.81 in 10.0 mi West 4.6 mph - N/A   Scattered Clouds
9:55 PM 66.2 °F - 42.8 °F 43% 29.81 in 10.0 mi West 3.5 mph - N/A   Clear
10:15 PM 64.4 °F - 42.8 °F 45% 29.81 in 10.0 mi WSW 3.5 mph - N/A   Clear
10:35 PM 62.6 °F - 44.6 °F 52% 29.82 in 10.0 mi Calm Calm - N/A   Clear
10:55 PM 62.6 °F - 44.6 °F 52% 29.83 in 10.0 mi West 4.6 mph - N/A   Clear
11:15 PM 60.8 °F - 44.6 °F 55% 29.84 in 10.0 mi NW 6.9 mph - N/A   Clear
11:35 PM 60.8 °F - 44.6 °F 55% 29.85 in 10.0 mi WNW 3.5 mph - N/A   Clear
11:55 PM 60.8 °F - 42.8 °F 52% 29.85 in 10.0 mi WNW 10.4 mph - N/A   Clear